Tracking 26443 objects as of 4-Dec-2022
HD Live streaming from Space Station
objects crossing your sky now

COSMOS 1408 DEB

Track COSMOS 1408 DEB now!
10-day predictions


NORAD ID: 49530
Int'l Code: 1982-092T
Perigee: 401.3 km
Apogee: 468.5 km
Inclination: 83.4 °
Period: 93.1 minutes
Semi major axis: 6805 km
RCS: Unknown
Launch date: September 16, 1982
Source: Commonwealth of Independent States (former USSR) (CIS)
Launch site: PLESETSK MISSILE AND SPACE COMPLEX (PKMTR)

Note: This is SATELLITE DEBRIS
aabbcc
Your satellite tracking list
Your tracking list is empty




NASA's NSSDC Master Catalog

Two Line Element Set (TLE):
1 49530U 82092T   22338.06604737  .00128680  00000-0  24645-2 0  9991
2 49530  83.3957 149.9939 0049360 169.8733 190.3526 15.46223800 58225
Source of the keplerian elements: AFSPC